Погода в Грине

США     44°11′30″N   70°08′30″W
темп.,
°C
ветер,
м/с
пор.,
м/с
влажн.,
%
обл.,
%
осадки,
мм/ч
давл.,
гПа
погр.,
м
15 мая, сб
сб1523:00+9з11865 0.0 102111
02:00+7з11885 0.0 102110
05:00+7сз11875 0.0 102210
08:00+14ссз116397 0.0 1023217
11:00+21ююз2241100 0.0 10221492
14:00+22ю2336100 0.0 10202293
17:00+15ю2580100 3.9 1020170
20:00+11вюв2595100 4.5 1022133
16 мая, вс
вс1623:00+9зсз1196100 0.1 102312
02:00+8зсз119548 0.3 102213
05:00+7сз11945 0.0 102211
08:00+13сз12772 0.0 1023195
11:00+21з12415 0.0 10231934
14:00+21з123661 0.0 10222246
17:00+17ююв1264100 0.1 1022183
20:00+12вюв249042 0.4 102478
17 мая, пн
пн1723:00+9ю009666 0.1 102511
02:00+8св11985 0.1 102517
05:00+7ссв11988 0.0 102512
08:00+11в238755 0.0 1027456
11:00+18юв125686 0.0 10261270
14:00+17ююв2257100 0.1 10241202
17:00+17ююв3458100 0.0 1024883
20:00+11ю258758 0.0 1025125
18 мая, вт
вт1823:00+8юз119789 0.0 102412
02:00+7юз119892 0.0 102426
05:00+9з1198100 0.1 102312
08:00+14зсз128576 0.4 1023196
11:00+19зсз4757100 0.4 10221672
14:00+22зсз5738100 0.6 10212568
17:00+20ссз3746100 0.0 10211960
20:00+14сз116771 0.0 102214
19 мая, ср
ср1923:00+11сз117990 0.0 102311
02:00+9зсз1185100 0.0 102411
05:00+9зсз119081 0.0 102510
08:00+15зсз2366100 0.0 1025240
11:00+22ссз25377 0.0 10251412
14:00+24ссз254636 0.0 10241460
17:00+20вюв116193 0.0 102320
20:00+16ююв117239 0.0 102425